Tracking 20242 objects as of 24-Jan-2020
HD Live streaming from Space Station
objects crossing your sky now

COSMOS 614

Track COSMOS 614 now!
10-day predictions
COSMOS 614 is classified as:


NORAD ID: 6965
Int'l Code: 1973-098A
Perigee: 752.4 km
Apogee: 785.5 km
Inclination: 74.1 °
Period: 100.1 minutes
Semi major axis: 7139 km
RCS: 2.1152 m2 (large)
Launch date: December 4, 1973
Source: Commonwealth of Independent States (former USSR) (CIS)
Launch site: PLESETSK MISSILE AND SPACE COMPLEX (PKMTR)
aabbcc
Your satellite tracking list
Your tracking list is empty




NASA's NSSDC Master Catalog

Two Line Element Set (TLE):
1  6965U 73098A   20023.43580718 +.00000007 +00000-0 +10677-4 0  9998
2  6965 074.0566 023.4170 0023176 180.8181 179.2940 14.39001407418126
Source of the keplerian elements: AFSPC